Location: Bullenkuhlen
(53.7689°N, 9.7495°E)
Time: 07:18:15
(UTC+00:00)

Iridium 4 Rocket - Pass Details

Date: 09 April 2020
Orbit: 585 x 904 km, 86.9° (Epoch: 24 May)

Event Time Altitude Azimuth Distance (km) Brightness Sun altitude
Rises 19:50:17 0° 358° (N) 2,877 7.0 -13.9°
Reaches altitude 10° 19:52:33 10° 3° (N) 1,946 6.1 -14.2°
Maximum altitude 19:56:43 57° 82° (E) 698 3.1 -14.7°
Enters shadow 19:59:09 23° 154° (SSE) 1,267 4.1 -14.9°
